COSMOS 2498

导读 | 豆包AI

COSMOS 2498(宇宙2498)是独联体(CIS)发射的一颗卫星,于2014年5月23日08:00发射入轨。“宇宙(COSMOS)”系列是苏联/俄罗斯沿用至今的卫星命名体系,覆盖军事侦察、技术试验、航天安全等多类任务,多数任务细节未公开披露。作为该序列中的成员,COSMOS 2498延续了系列保密属性,外界推测其可能承担空间态势感知、技术验证或军事航天相关任务,目前仍在轨运行。

基本信息
目录编号:
39763
目录名称:
COSMOS 2498
国际标识:
2014-028C
轨道中心:
EARTH
卫星名称:
COSMOS 2498
卫星全名:
--
卫星状态:
在轨 (已飞行4361 天)
发射日期:
2014-05-23 UTC
国别 :
俄罗斯(独联体) (CIS)
星等 :
--
轨道信息
数据来源 国际轨道数据 AOE轨道数据
星历时间 2026-05-01T05:19:29+0800
11小时前
查看轨道信息
2026-05-01T05:00:00+0800
11小时前
查看轨道信息
半长轴 7872.137km 7872.135km
偏心率 0.0021338 0.0021193
轨道倾角 82.444° 82.444°
近地点辐角 173.306° 172.923°
升交点赤经 138.538° 138.547°
平近点角 186.831° 126.690°
近地点 1477.202km 1477.314km
远地点 1510.798km 1510.682km
周期 115.851分钟 115.851分钟
每日圈数 12.429791 12.429796
详细信息
使用方式:
暂无
2D轨道图
3D轨道图
轨道高度分析图
轨道倾角分析图
轨道综合分析图
查看轨道综合分析图